Flag Weather past 2 weeks in Yuzhno-Sakhalinsk, Russia

Now
41 °F

Passing clouds.


Feels Like: 39 °F
Forecast: 29 / 41 °F
Wind: 3 mph from Northeast

Location: Yuzhno Airport-Sakhalinsk

Current Time: Oct 31, 2014 at 2:18:43 AM

Latest Report: Oct 31, 2014 at 2:00 AM


Visibility: 5 mi

Pressure: 30.15 "Hg

Humidity: 93%

Dew point: 39 °F

Location of Yuzhno-SakhalinskLocation

Historic Weather in Yuzhno-Sakhalinsk — Graph

°F

Yuzhno-Sakhalinsk temperature yesterday

Maximum temperature yesterday: 52 °F (at 12:30 PM)
Minimum temperature yesterday: 21 °F (at 6:00 AM)
Average temperature yesterday: 40 °F

Past Weeks' High & Low Weather Summary

 TemperatureHumidityPressure
High64 °F (Oct 19, 1:30 PM)100% (Oct 16, 5:00 AM)30.24 "Hg (Oct 16, 5:00 AM)
Low14 °F (Oct 22, 5:00 AM)30% (Oct 23, 2:30 PM)29.50 "Hg (Oct 28, 4:00 AM)
Average43 °F77%29.91 "Hg
* Reported Oct 16 2:00 AM — Oct 31 1:00 AM, Yuzhno-Sakhalinsk, Weather by CustomWeather, © 2014

Note: Actual official high and low records may vary slightly from our data, if they occured in-between our weather recording intervals... More about our weather records

Advertising

Yuzhno-Sakhalinsk weather history for previous 24 hours

 ConditionsComfort  
Time TempWeatherWind HumidityBarometerVisibility
1:00 AM
Oct 31
41 °FPassing clouds.No wind87%30.15 "Hg5 mi
12:00 AM41 °FPassing clouds.1 mph87%30.12 "Hg5 mi
11:00 PM
Oct 30
41 °FPassing clouds.No wind87%30.12 "HgN/A
10:00 PM41 °FPassing clouds.3 mph87%30.09 "HgN/A
9:30 PM45 °FPassing clouds.1 mph81%30.09 "HgN/A
9:00 PM46 °FPassing clouds.6 mph76%30.09 "HgN/A
8:30 PM45 °FPassing clouds.8 mph76%30.09 "HgN/A
8:00 PM45 °FPassing clouds.6 mph76%30.09 "HgN/A
7:30 PM41 °FPassing clouds.1 mph87%30.09 "HgN/A
7:00 PM41 °FPassing clouds.No wind87%30.09 "HgN/A
6:30 PM39 °FPassing clouds.No wind87%30.09 "HgN/A
6:00 PM43 °FPassing clouds.No wind81%30.09 "HgN/A
5:30 PM43 °FPassing clouds.3 mph81%30.09 "HgN/A
5:00 PM46 °FPassing clouds.1 mph71%30.09 "HgN/A
4:30 PM48 °FClear.6 mph66%30.07 "HgN/A
4:00 PM50 °FClear.6 mph62%30.07 "HgN/A
3:30 PM50 °FClear.8 mph54%30.07 "HgN/A
3:00 PM52 °FClear.8 mph50%30.07 "HgN/A
2:30 PM52 °FClear.8 mph47%30.07 "HgN/A
2:00 PM52 °FClear.6 mph50%30.09 "HgN/A
1:30 PM50 °FClear.3 mph54%30.09 "HgN/A
1:00 PM50 °FClear.8 mph47%30.09 "HgN/A
12:30 PM52 °FClear.8 mph47%30.09 "HgN/A
12:00 PM50 °FClear.1 mph54%30.12 "HgN/A
11:30 AM48 °FClear.3 mph58%30.12 "HgN/A
11:00 AM46 °FClear.1 mph62%30.12 "HgN/A
10:30 AM43 °FClear.No wind71%30.12 "HgN/A
10:00 AM41 °FSunny.No wind76%30.15 "HgN/A
9:30 AM39 °FSunny.No wind81%30.15 "HgN/A
9:00 AM32 °FClear.No wind93%30.15 "HgN/A
8:30 AM30 °FClear.No wind100%30.15 "HgN/A
8:00 AM27 °FClear.1 mph100%30.12 "HgN/A
7:30 AM23 °FClear.No wind93%30.12 "HgN/A
7:00 AM23 °FClear.No wind93%30.12 "HgN/A
6:30 AM23 °FPassing clouds.1 mph93%30.12 "HgN/A
6:00 AM21 °FPassing clouds.3 mph100%30.12 "HgN/A
5:00 AM25 °FPassing clouds.No wind100%30.12 "HgN/A
4:00 AM27 °FPassing clouds.1 mph93%30.12 "HgN/A
3:00 AM32 °FPassing clouds.6 mph87%30.09 "HgN/A
2:00 AM32 °FPassing clouds.3 mph87%30.09 "HgN/A
Weather by CustomWeather, © 2014

See weather overviewHow to use our weather pages